Location: Unspecified
(32.5099°N, 80.0190°W)
Time: 19:32:32
(UTC-05:00)

CZ-3 Stage 3 - Visible Passes

Search period start: 02 March 2015 00:00
Search period end: 12 March 2015 01:00
Orbit: 431 x 34799 km, 31.1° (Epoch: 28 February)

Date Brightness Start Highest point End Pass type
(mag) Time Alt. Az. Time Alt. Az. Time Alt. Az.
02 Mar 7.3 15:56:25 10° WSW 00:51:30 35° WSW 00:51:30 35° WSW visible
03 Mar 6.8 12:08:56 10° SSW 20:57:59 84° SSW 21:24:46 51° ESE visible
05 Mar 7.3 15:52:02 10° WSW 00:47:41 34° WSW 00:47:41 34° WSW visible
06 Mar 6.7 12:03:46 10° SSW 20:54:23 84° SSW 21:20:56 49° ESE visible
08 Mar 7.2 16:47:40 10° WSW 01:43:48 32° WSW 01:43:48 32° WSW visible
09 Mar 6.7 12:58:36 10° SSW 21:50:36 83° SSW 22:17:01 46° SE visible
